EW1107 Weather Reports


Display with metric or nautical units.
time (UTC)temp
F
wind
direction
speed
MPH
gust
MPH
rain 1hr
in
rain 24hr
in
rain mn
in
humidity
%
barometer
mb
20260507173504 52 5 5.0 17.0 0.00 0.14 0.08 88 1013.0
20260507173006 52 360 3.0 17.0 0.00 0.14 0.08 88 1012.9
20260507171042 52 5 5.0 13.0 0.00 0.14 0.08 88 1012.6
20260507170540 52 11 1.0 13.0 0.00 0.14 0.08 88 1012.7
20260507170039 52 355 3.0 13.0 0.00 0.14 0.08 88 1012.5
20260507165537 53 13 0.0 9.0 0.00 0.14 0.08 88 1012.4
20260507165521 53 13 1.0 11.0 0.00 0.14 0.08 88 1012.3
20260507164509 53 5 2.0 12.0 0.00 0.14 0.08 88 1012.2
20260507162105 53 9 7.0 21.0 0.00 0.14 0.08 87 1011.9
20260507124550 60 355 0.0 2.0 0.00 0.14 0.08 82 1011.2
20260507124048 59 23 0.0 1.0 0.00 0.14 0.08 82 1011.1
20260507123547 59 34 0.0 9.0 0.00 0.14 0.08 82 1011.2
20260507123103 59 19 0.0 10.0 0.00 0.14 0.08 81 1011.2
20260507122547 60 5 2.0 11.0 0.00 0.14 0.08 82 1011.1
20260507122049 60 15 5.0 13.0 0.00 0.14 0.08 82 1011.0
20260507121546 59 36 3.0 11.0 0.00 0.14 0.08 83 1011.0
20260507121046 59 13 5.0 11.0 0.00 0.14 0.08 83 1011.1
20260507120045 59 30 1.0 10.0 0.00 0.14 0.08 84 1011.0
20260507115545 58 36 1.0 10.0 0.00 0.14 0.08 85 1011.1
20260507115044 58 349 2.0 9.0 0.00 0.14 0.08 85 1011.1
20260507114551 58 332 0.0 8.0 0.00 0.14 0.08 85 1011.1
20260507114040 58 52 0.0 1.0 0.00 0.14 0.08 85 1011.2
20260507113540 57 30 0.0 1.0 0.00 0.14 0.08 85 1011.1
20260507113039 57 136 0.0 6.0 0.00 0.14 0.08 84 1011.2
20260507112538 58 65 2.0 10.0 0.00 0.14 0.08 84 1011.1
20260507111024 56 44 1.0 12.0 0.00 0.14 0.08 88 1011.0
20260507110523 56 25 2.0 8.0 0.00 0.14 0.08 89 1011.0
20260507094550 54 304 0.0 13.0 0.00 0.14 0.08 94 1010.2
20260507094048 53 337 4.0 13.0 0.00 0.14 0.08 95 1010.2
20260507093647 53 11 3.0 11.0 0.00 0.14 0.08 95 1010.1
20260507092547 53 351 4.0 12.0 0.00 0.14 0.08 95 1010.0
20260507092047 53 317 1.0 12.0 0.00 0.14 0.08 96 1010.0
20260507091546 53 349 4.0 13.0 0.00 0.14 0.08 96 1010.0
20260507091045 52 355 4.0 13.0 0.00 0.14 0.08 95 1010.0
20260507090545 52 355 4.0 11.0 0.00 0.14 0.08 96 1009.9
20260507090055 52 329 1.0 12.0 0.00 0.14 0.08 96 1009.9
20260507085544 52 322 7.0 14.0 0.00 0.14 0.08 95 1009.8
20260507085043 52 14 5.0 14.0 0.00 0.14 0.08 96 1009.7
20260507084549 52 331 6.0 14.0 0.00 0.14 0.08 96 1009.6
20260507084040 52 360 1.0 17.0 0.00 0.14 0.08 96 1009.4
20260507083641 52 355 2.0 17.0 0.00 0.14 0.08 96 1009.4
20260507083038 51 355 8.0 14.0 0.00 0.14 0.08 96 1009.3
20260507082536 51 325 5.0 14.0 0.00 0.14 0.08 96 1009.3
20260507082036 51 311 6.0 17.0 0.00 0.14 0.08 96 1009.3
20260507081536 51 360 3.0 17.0 0.00 0.14 0.08 96 1009.3
20260507081035 51 5 6.0 17.0 0.00 0.14 0.08 96 1009.1
20260507080535 51 360 7.0 18.0 0.00 0.14 0.08 95 1009.1
20260507080033 51 333 9.0 18.0 0.00 0.14 0.08 95 1009.0
20260507075532 51 324 4.0 11.0 0.00 0.14 0.08 96 1009.1
20260507075031 51 317 4.0 11.0 0.00 0.14 0.08 96 1009.0
20260507074530 51 323 4.0 17.0 0.01 0.14 0.08 95 1009.0
20260507074028 51 340 8.0 17.0 0.01 0.14 0.08 96 1009.0
20260507073528 51 326 6.0 15.0 0.01 0.14 0.08 95 1009.0
20260507073030 51 338 6.0 15.0 0.01 0.14 0.08 95 1008.8
20260507072528 51 329 7.0 16.0 0.01 0.14 0.08 95 1008.8
20260507072026 52 330 9.0 15.0 0.01 0.14 0.08 95 1008.7
20260507071531 52 355 5.0 14.0 0.01 0.14 0.08 95 1008.7
20260507071027 52 360 6.0 16.0 0.01 0.14 0.08 95 1008.5
20260507070522 53 324 8.0 16.0 0.01 0.14 0.08 95 1008.5
20260507070020 53 5 1.0 12.0 0.01 0.14 0.08 96 1008.3
20260507065519 53 5 2.0 16.0 0.01 0.14 0.08 96 1008.2
20260507065018 53 351 9.0 16.0 0.01 0.14 0.08 95 1008.1
20260507064528 53 321 3.0 15.0 0.01 0.13 0.07 95 1008.1
20260507064021 53 46 5.0 15.0 0.01 0.13 0.07 96 1008.0
20260507063514 53 349 3.0 13.0 0.01 0.13 0.07 95 1007.9
20260507063012 53 355 5.0 16.0 0.02 0.13 0.07 95 1007.7
20260507062612 53 351 8.0 17.0 0.02 0.13 0.07 95 1007.7
20260507054508 55 347 7.0 14.0 0.02 0.13 0.06 95 1007.5
20260507054007 55 355 2.0 9.0 0.02 0.13 0.06 95 1007.3
20260507053507 55 355 1.0 9.0 0.02 0.13 0.06 95 1007.4
20260507053006 55 325 1.0 8.0 0.02 0.12 0.06 95 1007.3
20260507052505 55 315 2.0 9.0 0.02 0.12 0.06 95 1007.3
20260507052006 55 340 3.0 12.0 0.01 0.11 0.05 95 1007.2
20260507051505 55 342 0.0 4.0 0.00 0.10 0.04 95 1007.2
20260507051003 55 317 0.0 1.0 0.00 0.10 0.04 95 1007.2
20260507050505 55 355 0.0 1.0 0.00 0.10 0.04 95 1007.1
20260507050010 55 336 0.0 0.0 0.00 0.10 0.04 95 1007.1
20260507045001 55 326 0.0 0.0 0.00 0.10 0.04 95 1006.9
20260507044601 56 327 0.0 0.0 0.00 0.10 0.04 95 1006.8
20260507044101 56 324 0.0 0.0 0.00 0.10 0.04 95 1006.8
20260507043558 56 343 0.0 6.0 0.00 0.10 0.04 95 1006.7
20260507043059 56 334 0.0 6.0 0.00 0.10 0.04 95 1006.6
20260507042559 56 308 0.0 2.0 0.01 0.10 0.04 95 1006.6
20260507042057 56 308 0.0 0.0 0.01 0.10 0.04 95 1006.5
20260507041556 56 308 0.0 3.0 0.01 0.10 0.04 95 1006.3
20260507041054 56 308 0.0 3.0 0.01 0.10 0.04 95 1006.3
20260507040553 55 308 0.0 3.0 0.01 0.10 0.04 95 1006.2
20260507040051 55 308 1.0 3.0 0.02 0.10 0.04 95 1006.3
20260507035550 55 308 0.0 4.0 0.02 0.10 0.04 95 1006.3
20260507035050 55 307 1.0 4.0 0.02 0.10 0.04 95 1006.4
20260507034551 56 294 0.0 2.0 0.02 0.10 0.04 95 1006.4
20260507034053 56 294 0.0 2.0 0.02 0.10 0.04 95 1006.2
20260507033549 56 294 0.0 3.0 0.02 0.10 0.04 95 1006.1
20260507033049 55 294 0.0 2.0 0.02 0.10 0.04 95 1006.1
20260507032549 55 294 0.0 8.0 0.01 0.09 0.03 95 1006.1
20260507032048 55 294 1.0 8.0 0.01 0.09 0.03 95 1006.3
20260507031548 56 304 3.0 8.0 0.01 0.09 0.03 95 1006.3
20260507031046 56 304 2.0 8.0 0.01 0.09 0.03 95 1006.2
20260507030546 56 304 3.0 8.0 0.01 0.09 0.03 95 1006.2
20260507030046 56 306 1.0 4.0 0.00 0.09 0.02 95 1006.1
20260507025545 56 339 0.0 4.0 0.00 0.09 0.02 95 1006.0
20260507024545 56 344 3.0 10.0 0.00 0.09 0.02 94 1005.9
20260507024045 56 321 2.0 11.0 0.00 0.09 0.02 94 1005.8
20260507023544 56 293 1.0 11.0 0.00 0.09 0.02 95 1005.7
20260507023045 56 315 5.0 15.0 0.00 0.09 0.02 94 1005.8
20260507022542 56 301 9.0 14.0 0.00 0.09 0.02 94 1005.8
20260507022042 56 57 0.0 7.0 0.00 0.09 0.02 94 1005.5
20260507021543 56 87 0.0 7.0 0.00 0.09 0.02 94 1005.4
20260507021043 56 71 0.0 0.0 0.00 0.09 0.02 94 1005.4
20260507020540 56 64 0.0 0.0 0.00 0.09 0.02 94 1005.5
20260507020048 56 60 0.0 0.0 0.00 0.09 0.02 94 1005.5
20260507015545 56 60 0.0 0.0 0.00 0.09 0.02 94 1005.5
20260507015042 56 55 0.0 0.0 0.00 0.09 0.02 94 1005.6
20260507014545 56 54 0.0 0.0 0.00 0.09 0.02 94 1005.6
20260507014040 56 54 0.0 1.0 0.00 0.09 0.02 94 1005.5
20260507013541 56 54 0.0 1.0 0.00 0.09 0.02 94 1005.5
20260507013041 56 26 0.0 2.0 0.00 0.09 0.02 94 1005.5
20260507012539 56 26 0.0 5.0 0.00 0.09 0.02 94 1005.4
20260507012038 56 26 0.0 14.0 0.00 0.09 0.02 94 1005.4
20260507011541 56 54 5.0 14.0 0.00 0.09 0.02 94 1005.4
20260507011037 56 63 2.0 13.0 0.00 0.09 0.02 94 1005.3
20260507010536 56 76 3.0 13.0 0.00 0.09 0.02 94 1005.3
20260507010054 57 107 2.0 9.0 0.00 0.09 0.02 94 1005.4
20260507005536 57 65 3.0 10.0 0.00 0.09 0.02 94 1005.3
20260507005037 57 68 1.0 10.0 0.00 0.09 0.02 94 1005.4
20260507004035 57 29 0.0 8.0 0.00 0.09 0.02 94 1005.4
20260507003535 57 5 1.0 11.0 0.00 0.09 0.02 94 1005.5
20260507003034 57 24 3.0 13.0 0.00 0.09 0.02 94 1005.5
20260507002533 57 26 4.0 15.0 0.00 0.09 0.02 94 1005.6
20260507002033 57 9 9.0 19.0 0.01 0.09 0.02 93 1005.8
20260507001533 57 340 5.0 19.0 0.01 0.09 0.02 93 1005.9
20260507001032 58 341 7.0 15.0 0.01 0.09 0.02 94 1005.9
20260507000530 58 348 4.0 13.0 0.01 0.09 0.02 94 1006.0
20260507000029 58 327 3.0 13.0 0.01 0.09 0.02 93 1006.0
20260506235529 58 329 1.0 17.0 0.01 0.09 0.02 93 1005.8
20260506235029 58 349 7.0 17.0 0.01 0.09 0.02 93 1005.8
20260506234531 58 351 5.0 16.0 0.01 0.09 0.02 93 1005.7
20260506234029 58 5 5.0 16.0 0.02 0.09 0.02 93 1005.8
20260506233527 58 337 5.0 14.0 0.02 0.09 0.02 93 1005.8
20260506233026 58 312 2.0 15.0 0.02 0.09 0.02 93 1006.0
20260506232526 58 316 6.0 18.0 0.02 0.09 0.02 93 1006.2
20260506232023 58 9 8.0 18.0 0.01 0.08 0.02 92 1005.9
20260506231523 58 324 3.0 17.0 0.01 0.08 0.02 92 1005.9
20260506231024 58 321 5.0 17.0 0.01 0.08 0.02 92 1006.0
20260506230521 58 331 4.0 15.0 0.01 0.08 0.02 92 1005.9
20260506230025 58 355 3.0 13.0 0.02 0.08 0.02 92 1005.8
20260506225520 59 304 2.0 9.0 0.02 0.08 0.02 92 1005.8
20260506225019 59 30 4.0 11.0 0.02 0.08 0.02 92 1005.6
20260506224518 59 321 1.0 10.0 0.03 0.08 0.02 91 1005.7
20260506224017 59 355 1.0 12.0 0.02 0.07 0.01 91 1005.6
20260506223517 59 53 2.0 12.0 0.02 0.07 0.01 91 1005.3
20260506223017 59 355 1.0 13.0 0.02 0.07 0.01 91 1005.3
20260506222515 59 351 0.0 13.0 0.02 0.07 0.01 91 1005.4
20260506222018 59 355 2.0 9.0 0.03 0.07 0.01 91 1005.6
20260506221514 59 11 0.0 4.0 0.04 0.07 0.01 90 1005.7
20260506221014 59 360 0.0 9.0 0.06 0.07 0.01 90 1005.7
20260506220513 59 355 2.0 9.0 0.07 0.07 0.01 90 1005.7
20260506220016 59 360 3.0 9.0 0.06 0.06 0.00 89 1005.9
20260506215515 59 302 3.0 9.0 0.06 0.06 0.06 88 1006.1
20260506215011 60 247 1.0 7.0 0.05 0.05 0.05 88 1006.3
20260506214511 60 245 0.0 7.0 0.05 0.05 0.05 88 1006.4
20260506214110 60 259 1.0 6.0 0.05 0.05 0.05 87 1006.1
20260506213509 60 340 0.0 11.0 0.05 0.05 0.05 86 1005.7
20260506213009 60 306 5.0 11.0 0.05 0.05 0.05 85 1005.7
20260506212508 60 317 3.0 15.0 0.05 0.05 0.05 84 1005.7
20260506212011 61 9 4.0 13.0 0.04 0.04 0.04 82 1005.6
20260506211508 61 278 4.0 11.0 0.02 0.02 0.02 81 1006.0
20260506211007 62 355 3.0 17.0 0.02 0.02 0.02 79 1005.7
20260506210507 62 310 4.0 27.0 0.00 0.00 0.00 77 1005.4
20260506210007 63 305 15.0 27.0 0.00 0.00 0.00 75 1005.4
20260506205505 64 272 14.0 23.0 0.00 0.00 0.00 72 1005.6
20260506205004 65 277 0.0 1.0 0.00 0.00 0.00 69 1005.1
20260506204505 66 292 0.0 0.0 0.00 0.00 0.00 66 1004.7
20260506204004 66 280 0.0 0.0 0.00 0.00 0.00 61 1004.7
20260506203502 66 5 0.0 0.0 0.00 0.00 0.00 61 1004.4
20260506203004 66 5 0.0 0.0 0.00 0.00 0.00 60 1004.2
20260506202502 66 5 0.0 0.0 0.00 0.00 0.00 60 1004.2
20260506202002 66 342 0.0 0.0 0.00 0.00 0.00 60 1004.2
20260506201509 66 344 0.0 0.0 0.00 0.00 0.00 60 1004.2
20260506201002 66 292 0.0 0.0 0.00 0.00 0.00 61 1004.5
20260506200502 66 292 0.0 0.0 0.00 0.00 0.00 60 1004.6
20260506200001 66 330 0.0 0.0 0.00 0.00 0.00 61 1004.7
20260506195501 66 330 0.0 0.0 0.00 0.00 0.00 60 1004.7
20260506195001 67 330 0.0 0.0 0.00 0.00 0.00 60 1004.7
20260506194505 67 330 0.0 0.0 0.00 0.00 0.00 58 1004.7
20260506194100 67 330 0.0 0.0 0.00 0.00 0.00 58 1004.8
20260506194000 67 330 0.0 0.0 0.00 0.00 0.00 58 1004.8
20260506193559 67 330 0.0 0.0 0.00 0.00 0.00 57 1004.9
20260506193114 68 330 0.0 0.0 0.00 0.00 0.00 58 1004.8
20260506192600 68 330 0.0 0.0 0.00 0.00 0.00 58 1004.8
20260506192100 68 330 0.0 0.0 0.00 0.00 0.00 58 1004.9
20260506191623 68 330 0.0 0.0 0.00 0.00 0.00 57 1004.8
20260506191100 68 330 0.0 0.0 0.00 0.00 0.00 57 1004.8
20260506185557 69 330 0.0 0.0 0.00 0.00 0.00 55 1004.5
20260506184617 69 330 0.0 0.0 0.00 0.00 0.00 55 1004.4
20260506184056 69 330 0.0 4.0 0.00 0.00 0.00 54 1004.3
20260506183055 70 329 2.0 6.0 0.00 0.00 0.00 53 1004.2
20260506182052 70 331 0.0 4.0 0.00 0.00 0.00 53 1004.1
20260506181552 71 331 2.0 4.0 0.00 0.00 0.00 52 1004.1
20260506181052 71 330 1.0 5.0 0.00 0.00 0.00 52 1004.1
20260506180552 71 331 1.0 5.0 0.00 0.00 0.00 51 1004.1
20260506180052 72 330 0.0 9.0 0.00 0.00 0.00 50 1004.1
20260506175552 72 330 0.0 9.0 0.00 0.00 0.00 50 1004.1
20260506175050 72 275 0.0 9.0 0.00 0.00 0.00 49 1004.0
20260506174047 73 290 3.0 11.0 0.00 0.00 0.00 48 1004.1